Year,Month,Day,Hour,Minute,Value (Times are PST for temperature in C)
2009,05,26,00,00,14.40
2009,05,26,00,01,14.40
2009,05,26,00,02,14.40
2009,05,26,00,03,14.40
2009,05,26,00,04,14.40
2009,05,26,00,05,14.40
2009,05,26,00,06,14.40
2009,05,26,00,07,14.40
2009,05,26,00,08,14.30
2009,05,26,00,09,14.30
2009,05,26,00,10,14.40
2009,05,26,00,11,14.30
2009,05,26,00,12,14.40
2009,05,26,00,13,14.40
2009,05,26,00,14,14.40
2009,05,26,00,15,14.40
2009,05,26,00,16,14.40
2009,05,26,00,17,14.40
2009,05,26,00,18,14.40
2009,05,26,00,19,14.30
2009,05,26,00,20,14.30
2009,05,26,00,21,14.40
2009,05,26,00,22,14.40
2009,05,26,00,23,14.30
2009,05,26,00,24,14.30
2009,05,26,00,25,14.40
2009,05,26,00,26,14.40
2009,05,26,00,27,14.40
2009,05,26,00,28,14.40
2009,05,26,00,29,14.40
2009,05,26,00,30,14.40
2009,05,26,00,31,14.40
2009,05,26,00,32,14.50
2009,05,26,00,33,14.50
2009,05,26,00,34,14.50
2009,05,26,00,35,14.50
2009,05,26,00,36,14.50
2009,05,26,00,37,14.50
2009,05,26,00,38,14.50
2009,05,26,00,39,14.50
2009,05,26,00,40,14.50
2009,05,26,00,41,14.50
2009,05,26,00,42,14.50
2009,05,26,00,43,14.40
2009,05,26,00,44,14.40
2009,05,26,00,45,14.40
2009,05,26,00,46,14.40
2009,05,26,00,47,14.40
2009,05,26,00,48,14.40
2009,05,26,00,49,14.40
2009,05,26,00,50,14.40
2009,05,26,00,51,14.40
2009,05,26,00,52,14.40
2009,05,26,00,53,14.40
2009,05,26,00,54,14.40
2009,05,26,00,55,14.40
2009,05,26,00,56,14.40
2009,05,26,00,57,14.40
2009,05,26,00,58,14.40
2009,05,26,00,59,14.40
2009,05,26,01,00,14.40
2009,05,26,01,01,14.40
2009,05,26,01,02,14.30
2009,05,26,01,03,14.30
2009,05,26,01,04,14.30
2009,05,26,01,05,14.30
2009,05,26,01,06,14.30
2009,05,26,01,07,14.30
2009,05,26,01,08,14.30
2009,05,26,01,09,14.30
2009,05,26,01,10,14.30
2009,05,26,01,11,14.30
2009,05,26,01,12,14.30
2009,05,26,01,13,14.30
2009,05,26,01,14,14.30
2009,05,26,01,15,14.30
2009,05,26,01,16,14.30
2009,05,26,01,17,14.30
2009,05,26,01,18,14.30
2009,05,26,01,19,14.30
2009,05,26,01,20,14.30
2009,05,26,01,21,14.30
2009,05,26,01,22,14.30
2009,05,26,01,23,14.30
2009,05,26,01,24,14.30
2009,05,26,01,25,14.30
2009,05,26,01,26,14.30
2009,05,26,01,27,14.20
2009,05,26,01,28,14.20
2009,05,26,01,29,14.20
2009,05,26,01,30,14.20
2009,05,26,01,31,14.20
2009,05,26,01,32,14.20
2009,05,26,01,33,14.20
2009,05,26,01,34,14.20
2009,05,26,01,35,14.20
2009,05,26,01,36,14.20
2009,05,26,01,37,14.10
2009,05,26,01,38,14.10
2009,05,26,01,39,14.10
2009,05,26,01,40,14.10
2009,05,26,01,41,14.10
2009,05,26,01,42,14.10
2009,05,26,01,43,14.10
2009,05,26,01,44,14.10
2009,05,26,01,45,14.10
2009,05,26,01,46,14.10
2009,05,26,01,47,14.10
2009,05,26,01,48,14.10
2009,05,26,01,49,14.10
2009,05,26,01,50,14.00
2009,05,26,01,51,14.00
2009,05,26,01,52,14.00
2009,05,26,01,53,14.00
2009,05,26,01,54,14.00
2009,05,26,01,55,14.00
2009,05,26,01,56,14.00
2009,05,26,01,57,14.00
2009,05,26,01,58,14.00
2009,05,26,01,59,14.00
2009,05,26,02,00,14.10
2009,05,26,02,01,14.10
2009,05,26,02,02,14.10
2009,05,26,02,03,14.10
2009,05,26,02,04,14.10
2009,05,26,02,05,14.10
2009,05,26,02,06,14.10
2009,05,26,02,07,14.10
2009,05,26,02,08,14.10
2009,05,26,02,09,14.10
2009,05,26,02,10,14.10
2009,05,26,02,11,14.10
2009,05,26,02,12,14.10
2009,05,26,02,13,14.10
2009,05,26,02,14,14.10
2009,05,26,02,15,14.10
2009,05,26,02,16,14.10
2009,05,26,02,17,14.10
2009,05,26,02,18,14.10
2009,05,26,02,19,14.10
2009,05,26,02,20,14.10
2009,05,26,02,21,14.10
2009,05,26,02,22,14.10
2009,05,26,02,23,14.10
2009,05,26,02,24,14.00
2009,05,26,02,25,14.00
2009,05,26,02,26,14.00
2009,05,26,02,27,14.00
2009,05,26,02,28,14.00
2009,05,26,02,29,14.00
2009,05,26,02,30,14.00
2009,05,26,02,31,14.00
2009,05,26,02,32,14.00
2009,05,26,02,33,13.90
2009,05,26,02,34,13.90
2009,05,26,02,35,13.90
2009,05,26,02,36,13.90
2009,05,26,02,37,13.90
2009,05,26,02,38,13.90
2009,05,26,02,39,13.90
2009,05,26,02,40,13.90
2009,05,26,02,41,13.90
2009,05,26,02,42,13.90
2009,05,26,02,43,13.90
2009,05,26,02,44,13.90
2009,05,26,02,45,13.90
2009,05,26,02,46,13.90
2009,05,26,02,47,13.80
2009,05,26,02,48,13.80
2009,05,26,02,49,13.80
2009,05,26,02,50,13.80
2009,05,26,02,51,13.80
2009,05,26,02,52,13.80
2009,05,26,02,53,13.80
2009,05,26,02,54,13.80
2009,05,26,02,55,13.70
2009,05,26,02,56,13.70
2009,05,26,02,57,13.70
2009,05,26,02,58,13.70
2009,05,26,02,59,13.70
2009,05,26,03,00,13.70
2009,05,26,03,01,13.70
2009,05,26,03,02,13.70
2009,05,26,03,03,13.70
2009,05,26,03,04,13.60
2009,05,26,03,05,13.60
2009,05,26,03,06,13.60
2009,05,26,03,07,13.60
2009,05,26,03,08,13.60
2009,05,26,03,09,13.60
2009,05,26,03,10,13.50
2009,05,26,03,11,13.50
2009,05,26,03,12,13.50
2009,05,26,03,13,13.50
2009,05,26,03,14,13.50
2009,05,26,03,15,13.50
2009,05,26,03,16,13.50
2009,05,26,03,17,13.50
2009,05,26,03,18,13.50
2009,05,26,03,19,13.50
2009,05,26,03,20,13.50
2009,05,26,03,21,13.50
2009,05,26,03,22,13.50
2009,05,26,03,23,13.50
2009,05,26,03,24,13.50
2009,05,26,03,25,13.50
2009,05,26,03,26,13.50
2009,05,26,03,27,13.50
2009,05,26,03,28,13.50
2009,05,26,03,29,13.50
2009,05,26,03,30,13.50
2009,05,26,03,31,13.50
2009,05,26,03,32,13.50
2009,05,26,03,33,13.50
2009,05,26,03,34,13.50
2009,05,26,03,35,13.50
2009,05,26,03,36,13.50
2009,05,26,03,37,13.50
2009,05,26,03,38,13.50
2009,05,26,03,39,13.60
2009,05,26,03,40,13.50
2009,05,26,03,41,13.50
2009,05,26,03,42,13.50
2009,05,26,03,43,13.50
2009,05,26,03,44,13.60
2009,05,26,03,45,13.60
2009,05,26,03,46,13.60
2009,05,26,03,47,13.60
2009,05,26,03,48,13.50
2009,05,26,03,49,13.50
2009,05,26,03,50,13.50
2009,05,26,03,51,13.50
2009,05,26,03,52,13.50
2009,05,26,03,53,13.50
2009,05,26,03,54,13.50
2009,05,26,03,55,13.50
2009,05,26,03,56,13.50
2009,05,26,03,57,13.60
2009,05,26,03,58,13.60
2009,05,26,03,59,13.60
2009,05,26,04,00,13.60
2009,05,26,04,01,13.60
2009,05,26,04,02,13.60
2009,05,26,04,03,13.60
2009,05,26,04,04,13.60
2009,05,26,04,05,13.60
2009,05,26,04,06,13.60
2009,05,26,04,07,13.60
2009,05,26,04,08,13.60
2009,05,26,04,09,13.60
2009,05,26,04,10,13.60
2009,05,26,04,11,13.60
2009,05,26,04,12,13.60
2009,05,26,04,13,13.60
2009,05,26,04,14,13.60
2009,05,26,04,15,13.60
2009,05,26,04,16,13.60
2009,05,26,04,17,13.60
2009,05,26,04,18,13.60
2009,05,26,04,19,13.60
2009,05,26,04,20,13.60
2009,05,26,04,21,13.60
2009,05,26,04,22,13.60
2009,05,26,04,23,13.60
2009,05,26,04,24,13.60
2009,05,26,04,25,13.60
2009,05,26,04,26,13.60
2009,05,26,04,27,13.60
2009,05,26,04,28,13.60
2009,05,26,04,29,13.60
2009,05,26,04,30,13.60
2009,05,26,04,31,13.60
2009,05,26,04,32,13.60
2009,05,26,04,33,13.60
2009,05,26,04,34,13.60
2009,05,26,04,35,13.60
2009,05,26,04,36,13.60
2009,05,26,04,37,13.60
2009,05,26,04,38,13.60
2009,05,26,04,39,13.60
2009,05,26,04,40,13.60
2009,05,26,04,41,13.60
2009,05,26,04,42,13.60
2009,05,26,04,43,13.60
2009,05,26,04,44,13.60
2009,05,26,04,45,13.60
2009,05,26,04,46,13.60
2009,05,26,04,47,13.60
2009,05,26,04,48,13.60
2009,05,26,04,49,13.60
2009,05,26,04,50,13.60
2009,05,26,04,51,13.60
2009,05,26,04,52,13.60
2009,05,26,04,53,13.60
2009,05,26,04,54,13.60
2009,05,26,04,55,13.60
2009,05,26,04,56,13.60
2009,05,26,04,57,13.60
2009,05,26,04,58,13.60
2009,05,26,04,59,13.60
2009,05,26,05,00,13.50
2009,05,26,05,01,13.50
2009,05,26,05,02,13.50
2009,05,26,05,03,13.40
2009,05,26,05,04,13.40
2009,05,26,05,05,13.40
2009,05,26,05,06,13.40
2009,05,26,05,07,13.40
2009,05,26,05,08,13.40
2009,05,26,05,09,13.40
2009,05,26,05,10,13.40
2009,05,26,05,11,13.40
2009,05,26,05,12,13.40
2009,05,26,05,13,13.40
2009,05,26,05,14,13.40
2009,05,26,05,15,13.40
2009,05,26,05,16,13.30
2009,05,26,05,17,13.30
2009,05,26,05,18,13.30
2009,05,26,05,19,13.30
2009,05,26,05,20,13.30
2009,05,26,05,21,13.30
2009,05,26,05,22,13.30
2009,05,26,05,23,13.20
2009,05,26,05,24,13.20
2009,05,26,05,25,13.20
2009,05,26,05,26,13.20
2009,05,26,05,27,13.20
2009,05,26,05,28,13.20
2009,05,26,05,29,13.20
2009,05,26,05,30,13.20
2009,05,26,05,31,13.10
2009,05,26,05,32,13.10
2009,05,26,05,33,13.10
2009,05,26,05,34,13.10
2009,05,26,05,35,13.10
2009,05,26,05,36,13.10
2009,05,26,05,37,13.10
2009,05,26,05,38,13.00
2009,05,26,05,39,13.00
2009,05,26,05,40,13.00
2009,05,26,05,41,12.90
2009,05,26,05,42,12.90
2009,05,26,05,43,12.90
2009,05,26,05,44,12.90
2009,05,26,05,45,12.90
2009,05,26,05,46,12.90
2009,05,26,05,47,12.90
2009,05,26,05,48,12.90
2009,05,26,05,49,12.90
2009,05,26,05,50,13.00
2009,05,26,05,51,13.00
2009,05,26,05,52,13.00
2009,05,26,05,53,13.00
2009,05,26,05,54,13.00
2009,05,26,05,55,13.00
2009,05,26,05,56,13.00
2009,05,26,05,57,13.00
2009,05,26,05,58,13.00
2009,05,26,05,59,13.00
2009,05,26,06,00,13.00
2009,05,26,06,01,13.00
2009,05,26,06,02,13.00
2009,05,26,06,03,13.00
2009,05,26,06,04,13.00
2009,05,26,06,05,13.00
2009,05,26,06,06,13.00
2009,05,26,06,07,13.00
2009,05,26,06,08,13.00
2009,05,26,06,09,13.00
2009,05,26,06,10,12.90
2009,05,26,06,11,12.90
2009,05,26,06,12,12.90
2009,05,26,06,13,12.90
2009,05,26,06,14,12.90
2009,05,26,06,15,12.90
2009,05,26,06,16,12.90
2009,05,26,06,17,12.90
2009,05,26,06,18,12.90
2009,05,26,06,19,12.90
2009,05,26,06,20,12.90
2009,05,26,06,21,12.90
2009,05,26,06,22,12.90
2009,05,26,06,23,12.90
2009,05,26,06,24,12.90
2009,05,26,06,25,12.80
2009,05,26,06,26,12.80
2009,05,26,06,27,12.80
2009,05,26,06,28,12.80
2009,05,26,06,29,12.80
2009,05,26,06,30,12.70
2009,05,26,06,31,12.70
2009,05,26,06,32,12.70
2009,05,26,06,33,12.70
2009,05,26,06,34,12.60
2009,05,26,06,35,12.60
2009,05,26,06,36,12.60
2009,05,26,06,37,12.60
2009,05,26,06,38,12.60
2009,05,26,06,39,12.50
2009,05,26,06,40,12.50
2009,05,26,06,41,12.50
2009,05,26,06,42,12.50
2009,05,26,06,43,12.50
2009,05,26,06,44,12.50
2009,05,26,06,45,12.40
2009,05,26,06,46,12.40
2009,05,26,06,47,12.40
2009,05,26,06,48,12.40
2009,05,26,06,49,12.40
2009,05,26,06,50,12.40
2009,05,26,06,51,12.40
2009,05,26,06,52,12.40
2009,05,26,06,53,12.40
2009,05,26,06,54,12.40
2009,05,26,06,55,12.40
2009,05,26,06,56,12.30
2009,05,26,06,57,12.30
2009,05,26,06,58,12.30
2009,05,26,06,59,12.30
2009,05,26,07,00,12.30
2009,05,26,07,01,12.30
2009,05,26,07,02,12.30
2009,05,26,07,03,12.30
2009,05,26,07,04,12.30
2009,05,26,07,05,12.30
2009,05,26,07,06,12.30
2009,05,26,07,07,12.30
2009,05,26,07,08,12.30
2009,05,26,07,09,12.30
2009,05,26,07,10,12.20
2009,05,26,07,11,12.20
2009,05,26,07,12,12.20
2009,05,26,07,13,12.20
2009,05,26,07,14,12.20
2009,05,26,07,15,12.20
2009,05,26,07,16,12.20
2009,05,26,07,17,12.10
2009,05,26,07,18,12.10
2009,05,26,07,19,12.10
2009,05,26,07,20,12.10
2009,05,26,07,21,12.10
2009,05,26,07,22,12.10
2009,05,26,07,23,12.10
2009,05,26,07,24,12.10
2009,05,26,07,25,12.10
2009,05,26,07,26,12.10
2009,05,26,07,27,12.00
2009,05,26,07,28,12.00
2009,05,26,07,29,12.00
2009,05,26,07,30,12.00
2009,05,26,07,31,12.00
2009,05,26,07,32,12.00
2009,05,26,07,33,12.00
2009,05,26,07,34,11.90
2009,05,26,07,35,11.90
2009,05,26,07,36,11.90
2009,05,26,07,37,11.90
2009,05,26,07,38,11.90
2009,05,26,07,39,11.90
2009,05,26,07,40,11.90
2009,05,26,07,41,11.90
2009,05,26,07,42,11.90
2009,05,26,07,43,11.90
2009,05,26,07,44,11.90
2009,05,26,07,45,11.90
2009,05,26,07,46,11.90
2009,05,26,07,47,11.90
2009,05,26,07,48,11.90
2009,05,26,07,49,11.90
2009,05,26,07,50,11.90
2009,05,26,07,51,11.90
2009,05,26,07,52,12.00
2009,05,26,07,53,12.00
2009,05,26,07,54,12.00
2009,05,26,07,55,12.00
2009,05,26,07,56,12.00
2009,05,26,07,57,12.00
2009,05,26,07,58,12.00
2009,05,26,07,59,12.00
2009,05,26,08,00,12.00
2009,05,26,08,01,12.00
2009,05,26,08,02,12.10
2009,05,26,08,03,12.10
2009,05,26,08,04,12.10
2009,05,26,08,05,12.10
2009,05,26,08,06,12.10
2009,05,26,08,07,12.10
2009,05,26,08,08,12.10
2009,05,26,08,09,12.10
2009,05,26,08,10,12.10
2009,05,26,08,11,12.10
2009,05,26,08,12,12.10
2009,05,26,08,13,12.10
2009,05,26,08,14,12.10
2009,05,26,08,15,12.10
2009,05,26,08,16,12.10
2009,05,26,08,17,12.10
2009,05,26,08,18,12.10
2009,05,26,08,19,12.10
2009,05,26,08,20,12.10
2009,05,26,08,21,12.10
2009,05,26,08,22,12.10
2009,05,26,08,23,12.10
2009,05,26,08,24,12.10
2009,05,26,08,25,12.10
2009,05,26,08,26,12.10
2009,05,26,08,27,12.10
2009,05,26,08,28,12.10
2009,05,26,08,29,12.10
2009,05,26,08,30,12.10
2009,05,26,08,31,12.10
2009,05,26,08,32,12.10
2009,05,26,08,33,12.10
2009,05,26,08,34,12.10
2009,05,26,08,35,12.10
2009,05,26,08,36,12.10
2009,05,26,08,37,12.10
2009,05,26,08,38,12.10
2009,05,26,08,39,12.10
2009,05,26,08,40,12.10
2009,05,26,08,41,12.10
2009,05,26,08,42,12.10
2009,05,26,08,43,12.10
2009,05,26,08,44,12.10
2009,05,26,08,45,12.10
2009,05,26,08,46,12.10
2009,05,26,08,47,12.10
2009,05,26,08,48,12.10
2009,05,26,08,49,12.10
2009,05,26,08,50,12.10
2009,05,26,08,51,12.10
2009,05,26,08,52,12.10
2009,05,26,08,53,12.10
2009,05,26,08,54,12.10
2009,05,26,08,55,12.10
2009,05,26,08,56,12.10
2009,05,26,08,57,12.10
2009,05,26,08,58,12.10
2009,05,26,08,59,12.10
2009,05,26,09,00,12.10
2009,05,26,09,01,12.00
2009,05,26,09,02,12.00
2009,05,26,09,03,12.00
2009,05,26,09,04,12.00
2009,05,26,09,05,12.00
2009,05,26,09,06,12.00
2009,05,26,09,07,12.00
2009,05,26,09,08,12.00
2009,05,26,09,09,12.00
2009,05,26,09,10,12.00
2009,05,26,09,11,12.00
2009,05,26,09,12,12.00
2009,05,26,09,13,12.00
2009,05,26,09,14,12.00
2009,05,26,09,15,12.00
2009,05,26,09,16,12.10
2009,05,26,09,17,12.10
2009,05,26,09,18,12.10
2009,05,26,09,19,12.10
2009,05,26,09,20,12.10
2009,05,26,09,21,12.10
2009,05,26,09,22,12.10
2009,05,26,09,23,12.20
2009,05,26,09,24,12.10
2009,05,26,09,25,12.20
2009,05,26,09,26,12.20
2009,05,26,09,27,12.20
2009,05,26,09,28,12.20
2009,05,26,09,29,12.20
2009,05,26,09,30,12.20
2009,05,26,09,31,12.20
2009,05,26,09,32,12.20
2009,05,26,09,33,12.20
2009,05,26,09,34,12.20
2009,05,26,09,35,12.20
2009,05,26,09,36,12.30
2009,05,26,09,37,12.20
2009,05,26,09,38,12.20
2009,05,26,09,39,12.30
2009,05,26,09,40,12.30
2009,05,26,09,41,12.30
2009,05,26,09,42,12.30
2009,05,26,09,43,12.30
2009,05,26,09,44,12.30
2009,05,26,09,45,12.30
2009,05,26,09,46,12.30
2009,05,26,09,47,12.40
2009,05,26,09,48,12.40
2009,05,26,09,49,12.40
2009,05,26,09,50,12.40
2009,05,26,09,51,12.40
2009,05,26,09,52,12.40
2009,05,26,09,53,12.40
2009,05,26,09,54,12.40
2009,05,26,09,55,12.40
2009,05,26,09,56,12.50
2009,05,26,09,57,12.50
2009,05,26,09,58,12.60
2009,05,26,09,59,12.60
2009,05,26,10,00,12.70
2009,05,26,10,01,12.70
2009,05,26,10,02,12.70
2009,05,26,10,03,12.80
2009,05,26,10,04,12.80
2009,05,26,10,05,12.80
2009,05,26,10,06,12.90
2009,05,26,10,07,12.90
2009,05,26,10,08,12.90
2009,05,26,10,09,12.90
2009,05,26,10,10,12.90
2009,05,26,10,11,12.90
2009,05,26,10,12,12.90
2009,05,26,10,13,12.90
2009,05,26,10,14,12.90
2009,05,26,10,15,12.90
2009,05,26,10,16,12.90
2009,05,26,10,17,12.90
2009,05,26,10,18,12.90
2009,05,26,10,19,12.90
2009,05,26,10,20,12.90
2009,05,26,10,21,12.90
2009,05,26,10,22,12.90
2009,05,26,10,23,12.90
2009,05,26,10,24,13.00
2009,05,26,10,25,13.10
2009,05,26,10,26,13.10
2009,05,26,10,27,13.10
2009,05,26,10,28,13.20
2009,05,26,10,29,13.20
2009,05,26,10,30,13.20
2009,05,26,10,31,13.20
2009,05,26,10,32,13.20
2009,05,26,10,33,13.20
2009,05,26,10,34,13.30
2009,05,26,10,35,13.40
2009,05,26,10,36,13.40
2009,05,26,10,37,13.40
2009,05,26,10,38,13.40
2009,05,26,10,39,13.40
2009,05,26,10,40,13.40
2009,05,26,10,41,13.40
2009,05,26,10,42,13.50
2009,05,26,10,43,13.50
2009,05,26,10,44,13.60
2009,05,26,10,45,13.60
2009,05,26,10,46,13.60
2009,05,26,10,47,13.70
2009,05,26,10,48,13.70
2009,05,26,10,49,13.70
2009,05,26,10,50,13.70
2009,05,26,10,51,13.60
2009,05,26,10,52,13.70
2009,05,26,10,53,13.70
2009,05,26,10,54,13.80
2009,05,26,10,55,13.80
2009,05,26,10,56,13.90
2009,05,26,10,57,13.90
2009,05,26,10,58,14.00
2009,05,26,10,59,14.00
2009,05,26,11,00,14.10
2009,05,26,11,01,14.10
2009,05,26,11,02,14.10
2009,05,26,11,03,14.20
2009,05,26,11,04,14.20
2009,05,26,11,05,14.30
2009,05,26,11,06,14.30
2009,05,26,11,07,14.40
2009,05,26,11,08,14.50
2009,05,26,11,09,14.60
2009,05,26,11,10,14.60
2009,05,26,11,11,14.80
2009,05,26,11,12,14.80
2009,05,26,11,13,14.80
2009,05,26,11,14,14.90
2009,05,26,11,15,15.00
2009,05,26,11,16,15.00
2009,05,26,11,17,15.00
2009,05,26,11,18,15.00
2009,05,26,11,19,15.20
2009,05,26,11,20,15.30
2009,05,26,11,21,15.40
2009,05,26,11,22,15.50
2009,05,26,11,23,15.60
2009,05,26,11,24,15.60
2009,05,26,11,25,15.70
2009,05,26,11,26,15.80
2009,05,26,11,27,15.90
2009,05,26,11,28,16.00
2009,05,26,11,29,16.10
2009,05,26,11,30,16.20
2009,05,26,11,31,16.30
2009,05,26,11,32,16.30
2009,05,26,11,33,16.30
2009,05,26,11,34,16.50
2009,05,26,11,35,16.60
2009,05,26,11,36,16.70
2009,05,26,11,37,16.70
2009,05,26,11,38,16.60
2009,05,26,11,39,16.50
2009,05,26,11,40,16.60
2009,05,26,11,41,16.60
2009,05,26,11,42,16.70
2009,05,26,11,43,16.80
2009,05,26,11,44,16.80
2009,05,26,11,45,16.90
2009,05,26,11,46,16.90
2009,05,26,11,47,16.90
2009,05,26,11,48,16.90
2009,05,26,11,49,17.00
2009,05,26,11,50,17.10
2009,05,26,11,51,17.20
2009,05,26,11,52,17.30
2009,05,26,11,53,17.40
2009,05,26,11,54,17.50
2009,05,26,11,55,17.50
2009,05,26,11,56,17.40
2009,05,26,11,57,17.30
2009,05,26,11,58,17.20
2009,05,26,11,59,17.20
2009,05,26,12,00,17.20
2009,05,26,12,01,17.20
2009,05,26,12,02,17.20
2009,05,26,12,03,17.20
2009,05,26,12,04,17.20
2009,05,26,12,05,17.20
2009,05,26,12,06,17.20
2009,05,26,12,07,17.10
2009,05,26,12,08,16.90
2009,05,26,12,09,16.80
2009,05,26,12,10,16.80
2009,05,26,12,11,16.70
2009,05,26,12,12,16.70
2009,05,26,12,13,16.70
2009,05,26,12,14,16.80
2009,05,26,12,15,16.80
2009,05,26,12,16,16.80
2009,05,26,12,17,16.80
2009,05,26,12,18,16.80
2009,05,26,12,19,16.90
2009,05,26,12,20,16.90
2009,05,26,12,21,17.00
2009,05,26,12,22,17.00
2009,05,26,12,23,17.10
2009,05,26,12,24,17.20
2009,05,26,12,25,17.20
2009,05,26,12,26,17.40
2009,05,26,12,27,17.60
2009,05,26,12,28,17.70
2009,05,26,12,29,17.60
2009,05,26,12,30,17.50
2009,05,26,12,31,17.50
2009,05,26,12,32,17.60
2009,05,26,12,33,17.60
2009,05,26,12,34,17.50
2009,05,26,12,35,17.40
2009,05,26,12,36,17.40
2009,05,26,12,37,17.40
2009,05,26,12,38,17.50
2009,05,26,12,39,17.60
2009,05,26,12,40,17.70
2009,05,26,12,41,17.80
2009,05,26,12,42,17.80
2009,05,26,12,43,18.00
2009,05,26,12,44,18.10
2009,05,26,12,45,18.00
2009,05,26,12,46,17.90
2009,05,26,12,47,17.90
2009,05,26,12,48,17.80
2009,05,26,12,49,17.80
2009,05,26,12,50,17.70
2009,05,26,12,51,17.70
2009,05,26,12,52,17.60
2009,05,26,12,53,17.60
2009,05,26,12,54,17.70
2009,05,26,12,55,17.80
2009,05,26,12,56,17.90
2009,05,26,12,57,17.90
2009,05,26,12,58,17.90
2009,05,26,12,59,18.00
2009,05,26,13,00,18.00
2009,05,26,13,01,18.20
2009,05,26,13,02,18.30
2009,05,26,13,03,18.30
2009,05,26,13,04,18.30
2009,05,26,13,05,18.30
2009,05,26,13,06,18.20
2009,05,26,13,07,18.20
2009,05,26,13,08,18.30
2009,05,26,13,09,18.30
2009,05,26,13,10,18.40
2009,05,26,13,11,18.30
2009,05,26,13,12,18.40
2009,05,26,13,13,18.40
2009,05,26,13,14,18.30
2009,05,26,13,15,18.30
2009,05,26,13,16,18.40
2009,05,26,13,17,18.50
2009,05,26,13,18,18.60
2009,05,26,13,19,18.70
2009,05,26,13,20,18.90
2009,05,26,13,21,19.00
2009,05,26,13,22,19.10
2009,05,26,13,23,19.10
2009,05,26,13,24,19.00
2009,05,26,13,25,19.00
2009,05,26,13,26,18.90
2009,05,26,13,27,18.90
2009,05,26,13,28,18.80
2009,05,26,13,29,18.80
2009,05,26,13,30,18.90
2009,05,26,13,31,18.80
2009,05,26,13,32,18.80
2009,05,26,13,33,18.70
2009,05,26,13,34,18.60
2009,05,26,13,35,18.60
2009,05,26,13,36,18.60
2009,05,26,13,37,18.70
2009,05,26,13,38,18.90
2009,05,26,13,39,19.10
2009,05,26,13,40,19.20
2009,05,26,13,41,19.30
2009,05,26,13,42,19.40
2009,05,26,13,43,19.40
2009,05,26,13,44,19.40
2009,05,26,13,45,19.40
2009,05,26,13,46,19.30
2009,05,26,13,47,19.30
2009,05,26,13,48,19.30
2009,05,26,13,49,19.20
2009,05,26,13,50,19.20
2009,05,26,13,51,19.20
2009,05,26,13,52,19.20
2009,05,26,13,53,19.20
2009,05,26,13,54,19.20
2009,05,26,13,55,19.20
2009,05,26,13,56,19.30
2009,05,26,13,57,19.40
2009,05,26,13,58,19.40
2009,05,26,13,59,19.40
2009,05,26,14,00,19.30
2009,05,26,14,01,19.30
2009,05,26,14,02,19.30
2009,05,26,14,03,19.40
2009,05,26,14,04,19.30
2009,05,26,14,05,19.30
2009,05,26,14,06,19.30
2009,05,26,14,07,19.20
2009,05,26,14,08,19.20
2009,05,26,14,09,19.20
2009,05,26,14,10,19.20
2009,05,26,14,11,19.20
2009,05,26,14,12,19.30
2009,05,26,14,13,19.30
2009,05,26,14,14,19.40
2009,05,26,14,15,19.40
2009,05,26,14,16,19.50
2009,05,26,14,17,19.80
2009,05,26,14,18,19.90
2009,05,26,14,19,20.00
2009,05,26,14,20,20.00
2009,05,26,14,21,20.10
2009,05,26,14,22,20.20
2009,05,26,14,23,20.20
2009,05,26,14,24,20.20
2009,05,26,14,25,20.20
2009,05,26,14,26,20.10
2009,05,26,14,27,20.00
2009,05,26,14,28,19.90
2009,05,26,14,29,20.00
2009,05,26,14,30,19.90
2009,05,26,14,31,19.90
2009,05,26,14,32,19.90
2009,05,26,14,33,19.70
2009,05,26,14,34,19.50
2009,05,26,14,35,19.40
2009,05,26,14,36,19.40
2009,05,26,14,37,19.30
2009,05,26,14,38,19.20
2009,05,26,14,39,19.20
2009,05,26,14,40,19.20
2009,05,26,14,41,19.10
2009,05,26,14,42,19.10
2009,05,26,14,43,19.30
2009,05,26,14,44,19.30
2009,05,26,14,45,19.40
2009,05,26,14,46,19.40
2009,05,26,14,47,19.40
2009,05,26,14,48,19.50
2009,05,26,14,49,19.60
2009,05,26,14,50,19.50
2009,05,26,14,51,19.50
2009,05,26,14,52,19.50
2009,05,26,14,53,19.60
2009,05,26,14,54,19.60
2009,05,26,14,55,19.50
2009,05,26,14,56,19.50
2009,05,26,14,57,19.60
2009,05,26,14,58,19.60
2009,05,26,14,59,19.50
2009,05,26,15,00,19.40
2009,05,26,15,01,19.40
2009,05,26,15,02,19.30
2009,05,26,15,03,19.20
2009,05,26,15,04,19.20
2009,05,26,15,05,19.20
2009,05,26,15,06,19.30
2009,05,26,15,07,19.50
2009,05,26,15,08,19.50
2009,05,26,15,09,19.50
2009,05,26,15,10,19.40
2009,05,26,15,11,19.40
2009,05,26,15,12,19.50
2009,05,26,15,13,19.60
2009,05,26,15,14,19.70
2009,05,26,15,15,19.70
2009,05,26,15,16,19.80
2009,05,26,15,17,19.90
2009,05,26,15,18,20.00
2009,05,26,15,19,20.00
2009,05,26,15,20,20.00
2009,05,26,15,21,20.00
2009,05,26,15,22,19.90
2009,05,26,15,23,19.80
2009,05,26,15,24,19.60
2009,05,26,15,25,19.50
2009,05,26,15,26,19.50
2009,05,26,15,27,19.40
2009,05,26,15,28,19.30
2009,05,26,15,29,19.20
2009,05,26,15,30,19.20
2009,05,26,15,31,19.20
2009,05,26,15,32,19.20
2009,05,26,15,33,19.20
2009,05,26,15,34,19.20
2009,05,26,15,35,19.20
2009,05,26,15,36,19.20
2009,05,26,15,37,19.30
2009,05,26,15,38,19.20
2009,05,26,15,39,19.20
2009,05,26,15,40,19.30
2009,05,26,15,41,19.40
2009,05,26,15,42,19.50
2009,05,26,15,43,19.60
2009,05,26,15,44,19.70
2009,05,26,15,45,20.00
2009,05,26,15,46,20.00
2009,05,26,15,47,20.00
2009,05,26,15,48,19.90
2009,05,26,15,49,19.80
2009,05,26,15,50,19.70
2009,05,26,15,51,19.60
2009,05,26,15,52,19.50
2009,05,26,15,53,19.40
2009,05,26,15,54,19.30
2009,05,26,15,55,19.20
2009,05,26,15,56,19.20
2009,05,26,15,57,19.20
2009,05,26,15,58,19.10
2009,05,26,15,59,19.00
2009,05,26,16,00,18.80
2009,05,26,16,01,18.70
2009,05,26,16,02,18.60
2009,05,26,16,03,18.50
2009,05,26,16,04,18.50
2009,05,26,16,05,18.50
2009,05,26,16,06,18.50
2009,05,26,16,07,18.40
2009,05,26,16,08,18.40
2009,05,26,16,09,18.30
2009,05,26,16,10,18.40
2009,05,26,16,11,18.40
2009,05,26,16,12,18.50
2009,05,26,16,13,18.60
2009,05,26,16,14,18.70
2009,05,26,16,15,18.70
2009,05,26,16,16,18.60
2009,05,26,16,17,18.40
2009,05,26,16,18,18.30
2009,05,26,16,19,18.30
2009,05,26,16,20,18.30
2009,05,26,16,21,18.30
2009,05,26,16,22,18.30
2009,05,26,16,23,18.40
2009,05,26,16,24,18.50
2009,05,26,16,25,18.50
2009,05,26,16,26,18.50
2009,05,26,16,27,18.40
2009,05,26,16,28,18.30
2009,05,26,16,29,18.30
2009,05,26,16,30,18.30
2009,05,26,16,31,18.50
2009,05,26,16,32,18.70
2009,05,26,16,33,18.70
2009,05,26,16,34,18.70
2009,05,26,16,35,18.60
2009,05,26,16,36,18.50
2009,05,26,16,37,18.40
2009,05,26,16,38,18.40
2009,05,26,16,39,18.40
2009,05,26,16,40,18.50
2009,05,26,16,41,18.50
2009,05,26,16,42,18.40
2009,05,26,16,43,18.30
2009,05,26,16,44,18.30
2009,05,26,16,45,18.30
2009,05,26,16,46,18.40
2009,05,26,16,47,18.40
2009,05,26,16,48,18.40
2009,05,26,16,49,18.30
2009,05,26,16,50,18.30
2009,05,26,16,51,18.20
2009,05,26,16,52,18.10
2009,05,26,16,53,18.20
2009,05,26,16,54,18.20
2009,05,26,16,55,18.30
2009,05,26,16,56,18.40
2009,05,26,16,57,18.50
2009,05,26,16,58,18.50
2009,05,26,16,59,18.50
2009,05,26,17,00,18.40
2009,05,26,17,01,18.40
2009,05,26,17,02,18.30
2009,05,26,17,03,18.20
2009,05,26,17,04,18.20
2009,05,26,17,05,18.20
2009,05,26,17,06,18.20
2009,05,26,17,07,18.30
2009,05,26,17,08,18.30
2009,05,26,17,09,18.30
2009,05,26,17,10,18.30
2009,05,26,17,11,18.30
2009,05,26,17,12,18.40
2009,05,26,17,13,18.40
2009,05,26,17,14,18.40
2009,05,26,17,15,18.30
2009,05,26,17,16,18.20
2009,05,26,17,17,18.20
2009,05,26,17,18,18.20
2009,05,26,17,19,18.20